Change the Weather History Date:

Saturday, April 27, 2013

  Actual Average (KLOT) Record (KLOT)
Temperature  
Mean Temperature 56 °F 54 °F  
Max Temperature 69 °F 65 °F 76 °F (2003)
Min Temperature 43 °F 44 °F 31 °F (2012)
Degree Days  
Heating Degree Days 9 11  
Month to date heating degree days 419  
Since 1 July heating degree days 5964  
Cooling Degree Days 0 0  
Month to date cooling degree days 0  
Year to date cooling degree days 0  
Growing Degree Days 6 (Base 50)    
Moisture  
Dew Point 44 °F    
Average Humidity 67    
Maximum Humidity 100    
Minimum Humidity 31    
Precipitation  
Precipitation 0.00 in 0.16 in 2.02 in (1999)
Month to date precipitation 3.46  
Year to date precipitation 9.94  
Snow  
Snow 0.00 in 0.00 in 0.00 in (2011)
Month to date snowfall 0.5  
Since 1 July snowfall 32.3  
Snow Depth -    
Sea Level Pressure  
Sea Level Pressure 30.16 in    
Wind  
Wind Speed 5 mph (SSE)    
Max Wind Speed 15 mph    
Max Gust Speed 20 mph    
Visibility 9 miles    
Events      
T = Trace of Precipitation, MM = Missing Value Source: NWS Daily Summary

Daily Weather History Graph

Daily Weather History Graph

Search for Another Location

Airport or City:

Trip Planner

Search our weather history database for the weather conditions in past years. The results will help you decide how hot, cold, wet, or windy it might be!

Date:

Astronomy

Apr. 27, 2013 Rise Set
Actual Time 5:55 AM CDT 7:47 PM CDT
Civil Twilight 5:26 AM CDT 8:17 PM CDT
Nautical Twilight 4:49 AM CDT 8:53 PM CDT
Astronomical Twilight 4:11 AM CDT 9:32 PM CDT
Moon 10:17 PM CDT (4/27) 7:13 AM CDT (4/27)
Length of Visible Light 14h 51m
Length of Day
13h 51m
Waning Gibbous, 95% of the Moon is Illuminated
Apr 27
Waning Gibbous
May 2
Last Quarter
May 9
New
May 17
First Quarter
May 24
Full

Hourly Weather History & Observations

Time (CDT) Temp. Windchill Dew Point Humidity Pressure Visibility Wind Dir Wind Speed Gust Speed Precip Events Conditions
12:15 AM 48.4 °F - 43.5 °F 83% 30.30 in 10.0 mi SW 6.9 mph - N/A   Clear
12:35 AM 48.4 °F - 43.2 °F 82% 30.30 in 10.0 mi SW 4.6 mph - N/A   Clear
12:55 AM 48.2 °F - 43.3 °F 83% 30.30 in 10.0 mi SSW 4.6 mph - N/A   Clear
1:15 AM 48.6 °F - 43.3 °F 82% 30.29 in 10.0 mi SSW 4.6 mph - N/A   Scattered Clouds
1:35 AM 48.0 °F - 43.5 °F 84% 30.29 in 10.0 mi SSW 4.6 mph - N/A   Scattered Clouds
1:55 AM 46.9 °F - 42.8 °F 86% 30.28 in 10.0 mi South 4.6 mph - N/A   Clear
2:15 AM 46.9 °F - 43.3 °F 87% 30.28 in 10.0 mi South 4.6 mph - N/A   Clear
2:35 AM 47.3 °F - 43.7 °F 87% 30.27 in 10.0 mi SSW 3.5 mph - N/A   Clear
2:55 AM 47.8 °F - 43.9 °F 86% 30.27 in 10.0 mi Calm Calm - N/A   Clear
3:15 AM 48.2 °F - 43.9 °F 85% 30.27 in 10.0 mi Calm Calm - N/A   Clear
3:35 AM 45.0 °F - 44.2 °F 97% 30.27 in 7.0 mi Calm Calm - N/A   Clear
3:55 AM 45.1 °F - 44.4 °F 97% 30.26 in 7.0 mi Calm Calm - N/A   Clear
4:15 AM 46.4 °F - 45.5 °F 97% 30.26 in 10.0 mi Calm Calm - N/A   Clear
4:35 AM 45.9 °F - 45.5 °F 99% 30.26 in 7.0 mi Calm Calm - N/A   Clear
4:55 AM 43.9 °F 42.3 °F 43.7 °F 99% 30.26 in 3.0 mi SE 3.5 mph - N/A   Clear
5:15 AM 45.0 °F 42.6 °F 45.0 °F 100% 30.25 in 5.0 mi SE 4.6 mph - N/A   Clear
6:15 AM 43.9 °F 42.3 °F 43.9 °F 100% 30.25 in 2.0 mi SE 3.5 mph - N/A   Clear
6:35 AM 44.2 °F 42.7 °F 44.2 °F 100% 30.26 in 2.0 mi South 3.5 mph - N/A   Clear
6:55 AM 44.6 °F - 44.6 °F 100% 30.26 in 2.5 mi Calm Calm - N/A   Clear
7:15 AM 46.4 °F 45.2 °F 46.4 °F 100% 30.26 in 5.0 mi South 3.5 mph - N/A   Clear
7:35 AM 48.2 °F - 46.9 °F 95% 30.26 in 7.0 mi SE 3.5 mph - N/A   Clear
7:55 AM 49.8 °F - 47.5 °F 92% 30.26 in 10.0 mi SE 3.5 mph - N/A   Clear
8:15 AM 51.6 °F - 48.0 °F 87% 30.25 in 10.0 mi ESE 3.5 mph - N/A   Clear
8:35 AM 53.4 °F - 46.6 °F 78% 30.24 in 10.0 mi SE 4.6 mph - N/A   Clear
8:55 AM 54.7 °F - 46.4 °F 74% 30.24 in 10.0 mi SE 4.6 mph - N/A   Clear
9:15 AM 55.4 °F - 46.2 °F 71% 30.23 in 10.0 mi ESE 3.5 mph - N/A   Clear
9:35 AM 57.2 °F - 46.4 °F 67% 30.22 in 10.0 mi East 4.6 mph - N/A   Clear
9:55 AM 58.5 °F - 46.2 °F 64% 30.22 in 10.0 mi ESE 6.9 mph - N/A   Clear
10:15 AM 59.4 °F - 45.7 °F 61% 30.22 in 10.0 mi East 6.9 mph - N/A   Clear
10:35 AM 59.9 °F - 45.5 °F 59% 30.22 in 10.0 mi SE 4.6 mph - N/A   Clear
10:55 AM 61.2 °F - 45.7 °F 57% 30.22 in 10.0 mi SE 11.5 mph 16.1 mph N/A   Clear
11:15 AM 62.4 °F - 44.8 °F 52% 30.22 in 10.0 mi SE 10.4 mph 17.3 mph N/A   Clear
11:35 AM 63.3 °F - 44.8 °F 51% 30.21 in 10.0 mi SSE 9.2 mph 18.4 mph N/A   Clear
11:55 AM 64.2 °F - 43.9 °F 48% 30.20 in 10.0 mi SE 11.5 mph - N/A   Scattered Clouds
12:15 PM 64.6 °F - 42.6 °F 45% 30.19 in 10.0 mi SE 11.5 mph - N/A   Scattered Clouds
12:35 PM 65.5 °F - 42.8 °F 44% 30.18 in 10.0 mi ESE 11.5 mph - N/A   Clear
12:55 PM 65.3 °F - 43.5 °F 45% 30.17 in 10.0 mi SSE 8.1 mph 18.4 mph N/A   Clear
1:15 PM 66.6 °F - 39.9 °F 38% 30.16 in 10.0 mi ESE 12.7 mph 17.3 mph N/A   Clear
1:35 PM 68.2 °F - 36.7 °F 31% 30.15 in 10.0 mi SSE 15.0 mph 19.6 mph N/A   Clear
1:55 PM 68.5 °F - 37.2 °F 32% 30.14 in 10.0 mi SE 10.4 mph 17.3 mph N/A   Scattered Clouds
2:15 PM 69.1 °F - 37.8 °F 32% 30.13 in 10.0 mi SSE 12.7 mph 17.3 mph N/A   Scattered Clouds
2:35 PM 68.4 °F - 36.9 °F 31% 30.12 in 10.0 mi SSE 10.4 mph 16.1 mph N/A   Scattered Clouds
2:55 PM 68.7 °F - 37.0 °F 31% 30.11 in 10.0 mi SSE 11.5 mph 17.3 mph N/A   Scattered Clouds
3:15 PM 69.1 °F - 38.1 °F 32% 30.10 in 10.0 mi SE 8.1 mph 19.6 mph N/A   Clear
3:35 PM 69.1 °F - 38.3 °F 32% 30.09 in 10.0 mi South 10.4 mph - N/A   Clear
3:55 PM 69.1 °F - 37.8 °F 32% 30.09 in 10.0 mi SSE 9.2 mph 16.1 mph N/A   Clear
4:15 PM 68.9 °F - 38.8 °F 33% 30.08 in 10.0 mi SE 10.4 mph 16.1 mph N/A   Scattered Clouds
4:35 PM 68.0 °F - 39.4 °F 35% 30.07 in 10.0 mi SE 9.2 mph - N/A   Mostly Cloudy
4:55 PM 67.3 °F - 41.0 °F 38% 30.07 in 10.0 mi SE 6.9 mph - N/A   Mostly Cloudy
5:15 PM 66.7 °F - 40.8 °F 39% 30.06 in 10.0 mi SSE 9.2 mph - N/A   Mostly Cloudy
5:35 PM 66.2 °F - 42.8 °F 43% 30.06 in 10.0 mi SE 9.2 mph - N/A   Overcast
5:55 PM 65.5 °F - 42.4 °F 43% 30.06 in 10.0 mi SSE 9.2 mph - N/A   Overcast
6:15 PM 64.4 °F - 42.6 °F 45% 30.05 in 10.0 mi SSE 9.2 mph - N/A   Overcast
6:35 PM 64.0 °F - 43.3 °F 47% 30.05 in 10.0 mi SSE 8.1 mph - N/A   Overcast
6:55 PM 64.2 °F - 43.5 °F 47% 30.04 in 10.0 mi SSE 9.2 mph - N/A   Overcast
7:15 PM 62.6 °F - 44.6 °F 52% 30.05 in 10.0 mi South 10.4 mph - N/A   Overcast
7:35 PM 61.2 °F - 46.4 °F 58% 30.05 in 10.0 mi South 9.2 mph - N/A   Overcast
7:55 PM 59.5 °F - 48.2 °F 66% 30.05 in 10.0 mi SSW 8.1 mph - N/A   Overcast
8:15 PM 58.6 °F - 48.6 °F 69% 30.04 in 10.0 mi SW 8.1 mph - N/A   Overcast
8:35 PM 57.7 °F - 48.9 °F 72% 30.04 in 10.0 mi SSW 5.8 mph - N/A   Overcast
8:55 PM 56.8 °F - 49.1 °F 75% 30.04 in 10.0 mi SW 3.5 mph - N/A   Overcast
9:15 PM 56.8 °F - 48.6 °F 74% 30.03 in 10.0 mi Calm Calm - N/A   Overcast
9:35 PM 56.7 °F - 48.9 °F 75% 30.03 in 10.0 mi Calm Calm - N/A   Overcast
9:55 PM 56.8 °F - 48.7 °F 74% 30.03 in 10.0 mi Calm Calm - N/A   Overcast
10:15 PM 55.4 °F - 49.1 °F 79% 30.03 in 10.0 mi Calm Calm - N/A   Overcast
10:35 PM 55.4 °F - 49.6 °F 81% 30.02 in 10.0 mi South 3.5 mph - N/A   Overcast
10:55 PM 55.8 °F - 49.6 °F 80% 30.02 in 10.0 mi SSW 4.6 mph - N/A   Overcast
11:15 PM 55.0 °F - 50.0 °F 83% 30.01 in 10.0 mi SSW 4.6 mph - N/A   Overcast
11:35 PM 54.1 °F - 50.0 °F 86% 30.00 in 10.0 mi South 4.6 mph - N/A   Light Drizzle
11:55 PM 54.0 °F - 50.9 °F 89% 30.00 in 10.0 mi Calm Calm - N/A   Overcast